Simultaneous Nadir Overpasses (SNOs) Predictions

Prediction of SNOs between GOES-15 and TERRA Satellite Orbit:

Table of predicted SNOs for the next 14.0 days since TLE Epoch: 12/7/2019
Index Date Time (GOES-15) GOES-15 Lat,Lon TERRA Lat,Lon Distance(km) Time Diff (sec)
1 12/07/2019 19:02:35 -0.13,-128.21 -0.18,-127.84 40.89 80
2 12/09/2019 18:47:44 -0.14,-128.15 -0.84,-124.89 371.35 80
3 12/10/2019 07:11:48 0.12,-128.16 -0.27,-130.08 218.15 80
4 12/12/2019 06:56:56 0.12,-128.10 0.33,-127.12 111.42 80
5 12/12/2019 19:20:51 -0.11,-128.06 0.80,-132.26 478.70 80
6 12/14/2019 06:44:44 0.12,-128.03 0.94,-124.15 440.27 80
7 12/14/2019 19:08:39 -0.11,-127.99 0.19,-129.30 150.00 80
8 12/16/2019 18:53:47 -0.11,-127.91 -0.41,-126.34 178.28 80
9 12/17/2019 07:17:51 0.09,-127.91 -0.69,-131.53 411.34 80
10 12/19/2019 07:05:39 0.09,-127.83 -0.08,-128.57 83.52 80




NCC Satellite Simultaneous Nadir Overpasses (SNOs) Prediction Service
